[Iaude] MPEC V29: 2023 VP [a=2.04,e=0.57,i=2.4,H=24.6]
    mpec at marsden.cfa.harvard.edu 
    mpec at marsden.cfa.harvard.edu
       
    Sat Nov  4 09:59:01 EDT 2023
    
    
  
M.P.E.C. 2023-V29                              Issued 2023 November 4, 13:57 UT
     The Minor Planet Electronic Circulars contain information on unusual
         minor planets, routine data on comets and natural satellites,
         and occasional editorial announcements.  They are published
    on behalf of Division F of the International Astronomical Union by the
          Minor Planet Center, Smithsonian Astrophysical Observatory,
                          Cambridge, MA 02138, U.S.A.
			  
             Prepared using the Tamkin Foundation Computer Network
                              MPC at CFA.HARVARD.EDU
            URL https://www.minorplanetcenter.net/    ISSN 1523-6714
                                    2023 VP                                     
Observations:
     K23V00P*1C2023 11 02.36365602 04 54.966+39 06 36.68         20.53GVEV029G96
     K23V00P 1C2023 11 02.36885002 04 57.410+39 06 01.04         20.65GVEV029G96
     K23V00P 1C2023 11 02.37403002 04 59.804+39 05 26.56         20.09GVEV029G96
     K23V00P KC2023 11 02.39426702 05 09.175+39 03 08.86         19.62GVEV029I52
     K23V00P KC2023 11 02.39578902 05 09.902+39 02 58.42         19.62GVEV029I52
     K23V00P KC2023 11 02.39730902 05 10.597+39 02 47.98         19.68GVEV029I52
     K23V00P KC2023 11 02.39881902 05 11.292+39 02 37.72         20.04GVEV029I52
     K23V00P KC2023 11 03.11331502 10 52.42 +37 47 53.0          20.5 GVEV029H21
     K23V00P KC2023 11 03.11611402 10 53.54 +37 47 36.8          21.0 GVEV029H21
     K23V00P KC2023 11 03.11891302 10 54.65 +37 47 20.2          20.4 GVEV029H21
     K23V00P mC2023 11 03.13801502 11 04.664+37 45 27.61         19.80GVEV029I52
     K23V00P mC2023 11 03.13970302 11 05.356+37 45 17.71         20.39GVEV029I52
     K23V00P mC2023 11 03.14004602 11 05.485+37 45 15.80         20.61GVEV029I52
     K23V00P mC2023 11 03.14172702 11 06.166+37 45 06.34         20.49GVEV029I52
     K23V00P KC2023 11 03.17978002 11 20.62 +37 41 26.5          21.0 GXEV029858
     K23V00P KC2023 11 03.18666402 11 23.31 +37 40 46.8          20.0 GXEV029858
     K23V00P KC2023 11 03.19367302 11 26.02 +37 40 06.2          19.8 GXEV029858
     K23V00P KC2023 11 04.25815502 18 13.77 +36 01 41.3          21.1 G EV029858
     K23V00P KC2023 11 04.26568102 18 16.11 +36 01 02.1          20.7 G EV029858
Observer details:
858 Tebbutt Observatory, Edgewood.  Observer F. B. Zoltowski.  0.51-m f/8.1
    Schmidt-Cassegrain + CCD.
G96 Mt. Lemmon Survey.  Observer J. B. Fazekas.  Measurers E. C. Beshore, D.
    Fay, J. B. Fazekas, D. C. Fuls, A. R. Gibbs, A. D. Grauer, H. Groeller, J.
    K. Hogan, R. A. Kowalski, S. M. Larson, G. J. Leonard, D. Rankin, R. L.
    Seaman, F. C. Shelly, K. W. Wierzchos.  1.5-m reflector + 10K CCD.
H21 Astronomical Research Observatory, Westfield.  Observer R. Holmes.
    Measurers T. Linder, R. Holmes, L. Horn.  0.76-m f/3.0 astrograph + CCD.
I52 Steward Observatory, Mt. Lemmon Station.  Observers R. A. Kowalski, D.
    Rankin.  Measurers E. C. Beshore, D. Fay, J. B. Fazekas, D. C. Fuls, A. R.
    Gibbs, A. D. Grauer, H. Groeller, J. K. Hogan, R. A. Kowalski, S. M.
    Larson, G. J. Leonard, D. Rankin, R. L. Seaman, F. C. Shelly, K. W.
    Wierzchos.  1.0-m prime focus + CCD.
Orbital elements:
2023 VP                                                  Earth MOID = 0.0152 AU
Epoch 2023 Sept. 13.0 TT = JDT 2460200.5                Veres                   
M 358.13967              (2000.0)            P               Q                  
n   0.33885305     Peri.   71.30821     +0.94607664     +0.32120014             
a   2.0376446      Node   269.93911     -0.31080477     +0.86341549             
e   0.5659366      Incl.    2.41086     -0.09132024     +0.38902977             
P   2.91           H   24.68          G   0.15           U   8                  
Residuals in seconds of arc
231102 G96  0.7-  0.3+    231103 H21  0.0   0.2+    231103 858  0.1-  0.0
231102 G96  0.1-  0.2-    231103 H21  0.0   0.2+    231103 858  0.0   0.0
231102 G96  0.1-  0.4+    231103 H21  0.1-  0.1-    231103 858  0.0   0.1-
231102 I52  0.0   0.0     231103 I52  0.0   0.0     231104 858  0.1-  0.1+
231102 I52  0.3+  0.2-    231103 I52  0.1+  0.3-    231104 858  0.0   0.1-
231102 I52  0.2+  0.3-    231103 I52  0.0   0.2-
231102 I52  0.1+  0.3-    231103 I52  0.1+  0.1-
Ephemeris:
2023 VP                  a,e,i = 2.04, 0.57, 2                   q = 0.8845
Date    TT    R. A. (2000) Decl.     Delta      r    Elong.  Phase     V
2023 10 05    15 52 09.2 -03 44 21   0.1382  0.9129    47.6   125.9    25.5
...
2023 10 20    17 35 40.7 +31 50 57   0.04574 0.9819    70.8   106.7    21.9
...
2023 10 28    00 30 10.9 +52 46 33   0.05146 1.0312   135.6    42.4    20.0
...
2023 11 03    02 09 58.5 +37 59 33   0.08676 1.0723   156.4    21.8    20.6
2023 11 04    02 16 40.7 +36 24 26   0.09347 1.0794   158.4    19.8    20.7
2023 11 05    02 22 15.9 +35 00 15   0.1003  1.0866   160.1    18.1    20.8
...
2023 11 11    02 42 34.3 +29 10 16   0.1440  1.1311   167.2    11.2    21.4
...
2023 11 19    02 55 01.3 +25 00 34   0.2079  1.1933   169.1     9.0    22.3
...
2023 12 04    03 07 43.9 +21 25 31   0.3466  1.3150   158.9    15.7    23.8
M. P. C. Staff               (C) Copyright 2023 MPC           M.P.E.C. 2023-V29
    
    
More information about the Iaude
mailing list